Regional Weather Roundup
Issued by NWS

Home | Current Version | Previous Version | Graphics & Text | Print | Product List | Glossary Off
Versions: 1 2 3 4 5 6 7 8 9 10 11 12 13 14 15 16 17 18 19 20 21 22 23 24 25 26 27 28 29 30 31 32 33 34 35 36 37 38 39 40 41 42 43 44 45 46 47 48 49 50

150
ASUS43 KTOP 281559
RWRKS

WEATHER ROUNDUP FOR KANSAS
NATIONAL WEATHER SERVICE GOODLAND KS
1100 AM CDT SUN MAY 28 2017

NOTE:  "FAIR" INDICATES FEW OR NO CLOUDS BELOW 12,000 FEET WITH NO
SIGNIFICANT WEATHER AND/OR OBSTRUCTIONS TO VISIBILITY.

KSZ001>006-013>018-027>032-041>047-281700-
NORTHWEST KANSAS

CITY           SKY/WX    TMP DP  RH WIND       PRES   REMARKS
GOODLAND       SUNNY     66  46  48 NW18      30.17S
HAYS           SUNNY     71  49  45 NW9       30.08S
HILL CITY      SUNNY     71  50  47 NW12      30.09S
RUSSELL        SUNNY     71  52  50 NW12      30.05S
$$

KSZ061>065-074>080-084>089-281700-
SOUTHWEST KANSAS

CITY           SKY/WX    TMP DP  RH WIND       PRES   REMARKS
DODGE CITY     SUNNY     71  49  45 NW6       30.13F
ELKHART          N/A     65  38  37 MISG        N/A
GARDEN CITY    SUNNY     71  47  42 NW18      30.15S
GREAT BEND     SUNNY     72  51  47 NW8       30.08S
LIBERAL        SUNNY     68  49  50 N14       30.19S
$$

KSZ066>073-081>083-090>101-281700-
SOUTHEAST KANSAS

CITY           SKY/WX    TMP DP  RH WIND       PRES   REMARKS
CHANUTE        SUNNY     75  58  55 N7        30.00R
COFFEYVILLE    SUNNY     75  59  57 VRB5      30.01R
HUTCHINSON     SUNNY     73  52  47 NW8       30.06R
MEDICINE LODGE   N/A     74  48  39 N8        30.09R
NEWTON         SUNNY     73  49  42 NW13G21   30.05S
PARSONS        SUNNY     75  57  53 N7        30.02R
WICHITA INTL   MOSUNNY   74  50  42 NW13      30.05R
WICHITA JABRA  SUNNY     73  52  47 NW13G18   30.04R
WINFIELD       SUNNY     75  57  53 N9        30.06R
$$

KSZ007>012-019>026-033>040-048>060-102>105-281700-
NORTHEAST KANSAS

CITY           SKY/WX    TMP DP  RH WIND       PRES   REMARKS
CONCORDIA      SUNNY     72  54  53 NW8       30.02R
EMPORIA        SUNNY     72  53  51 NW9       30.01R
LAWRENCE       SUNNY     74  56  53 W10       29.96S
MANHATTAN      SUNNY     73  54  51 W8        30.00R
OLATHE IND     SUNNY     72  55  55 NW12      29.97R
OLATHE EXE     SUNNY     71  56  58 NW12      29.96R
SALINA         SUNNY     74  54  49 NW9       30.04S
TOPEKA BILLARD SUNNY     73  60  63 W9        29.97R
TOPEKA FORBES  SUNNY     75  54  47 W12G20    29.97S
$$




USA.gov is the U.S. government's official web portal to all federal, state and local government web resources and services.